Radiation Dose at Monitoring Post of Fukushima Daini Nuclear Power Station
Date,Time,MP-1(microSv/h),MP-2(microSv/h),MP-3(microSv/h),MP-4(microSv/h),MP-5(microSv/h),MP-6(microSv/h),MP-7(microSv/h),Wind Direction,Wind Velocity(m/s),Rain
2019/06/06,00:00,0.200,0.181,0.307,0.288,0.276,0.152,0.094,west-southwest,1.6,No
2019/06/06,00:10,0.199,0.183,0.306,0.287,0.275,0.153,0.094,-,CALM,No
2019/06/06,00:20,0.200,0.182,0.309,0.290,0.274,0.152,0.094,-,CALM,No
2019/06/06,00:30,0.200,0.183,0.307,0.287,0.278,0.153,0.093,north-northwest,0.6,No
2019/06/06,00:40,0.199,0.183,0.307,0.289,0.275,0.152,0.094,north,1.0,No
2019/06/06,00:50,0.201,0.183,0.306,0.288,0.277,0.153,0.094,north-northeast,1.6,No
2019/06/06,01:00,0.200,0.183,0.305,0.290,0.274,0.152,0.094,east-northeast,1.8,No
2019/06/06,01:10,0.200,0.183,0.307,0.288,0.277,0.153,0.094,north-northeast,0.6,No
2019/06/06,01:20,0.198,0.182,0.306,0.290,0.275,0.152,0.094,north-northwest,1.1,No
2019/06/06,01:30,0.200,0.181,0.307,0.287,0.276,0.153,0.093,north-northeast,1.2,No
2019/06/06,01:40,0.199,0.182,0.306,0.289,0.275,0.152,0.094,north-northwest,1.2,No
2019/06/06,01:50,0.201,0.182,0.308,0.288,0.275,0.152,0.094,north-northwest,3.1,No
2019/06/06,02:00,0.200,0.182,0.305,0.288,0.277,0.152,0.095,north-northwest,3.5,No
2019/06/06,02:10,0.200,0.183,0.307,0.288,0.273,0.153,0.093,northwest,5.5,Yes
2019/06/06,02:20,0.200,0.183,0.307,0.288,0.277,0.153,0.095,north-northwest,6.6,Yes
2019/06/06,02:30,0.200,0.183,0.308,0.289,0.275,0.153,0.094,north-northwest,7.5,Yes
2019/06/06,02:40,0.200,0.184,0.307,0.290,0.277,0.155,0.095,north-northwest,6.2,Yes
2019/06/06,02:50,0.201,0.183,0.311,0.292,0.277,0.154,0.096,north-northwest,5.5,Yes
2019/06/06,03:00,0.201,0.185,0.307,0.289,0.278,0.155,0.096,north-northwest,5.0,Yes
2019/06/06,03:10,0.200,0.184,0.308,0.291,0.278,0.153,0.096,north-northwest,4.2,No
2019/06/06,03:20,0.201,0.184,0.308,0.289,0.275,0.154,0.095,north-northwest,4.0,Yes
2019/06/06,03:30,0.201,0.183,0.308,0.291,0.278,0.152,0.095,north-northwest,4.8,No
2019/06/06,03:40,0.200,0.182,0.308,0.288,0.274,0.153,0.094,northwest,3.8,No
2019/06/06,03:50,0.200,0.183,0.306,0.290,0.277,0.153,0.095,northwest,2.7,Yes
2019/06/06,04:00,0.200,0.184,0.308,0.288,0.276,0.153,0.094,north-northwest,1.8,No
2019/06/06,04:10,0.200,0.183,0.307,0.290,0.277,0.152,0.094,north-northwest,0.9,No
2019/06/06,04:20,0.199,0.182,0.309,0.287,0.276,0.153,0.094,north,0.8,No
2019/06/06,04:30,0.200,0.182,0.305,0.289,0.275,0.153,0.095,north-northeast,1.5,No
2019/06/06,04:40,0.198,0.182,0.307,0.287,0.276,0.152,0.094,northeast,0.8,No
2019/06/06,04:50,0.200,0.182,0.306,0.289,0.276,0.153,0.095,-,CALM,No
2019/06/06,05:00,0.200,0.183,0.307,0.287,0.277,0.153,0.094,-,CALM,No
2019/06/06,05:10,0.201,0.183,0.305,0.290,0.274,0.152,0.094,-,CALM,No
2019/06/06,05:20,0.199,0.182,0.306,0.287,0.276,0.152,0.094,-,CALM,No
2019/06/06,05:30,0.200,0.182,0.306,0.289,0.273,0.153,0.095,-,CALM,No
2019/06/06,05:40,0.199,0.183,0.307,0.289,0.278,0.153,0.093,north-northwest,1.0,No
2019/06/06,05:50,0.201,0.183,0.305,0.289,0.274,0.152,0.093,north-northeast,1.4,No
2019/06/06,06:00,0.199,0.181,0.307,0.287,0.272,0.153,0.094,northeast,0.9,No
2019/06/06,06:10,0.200,0.182,0.304,0.289,0.275,0.153,0.093,northeast,1.0,No
2019/06/06,06:20,0.200,0.183,0.309,0.288,0.276,0.152,0.094,-,CALM,No
2019/06/06,06:30,0.199,0.182,0.305,0.287,0.273,0.154,0.094,-,CALM,No
2019/06/06,06:40,0.201,0.181,0.307,0.289,0.275,0.152,0.094,east,0.8,No
2019/06/06,06:50,0.201,0.184,0.308,0.287,0.277,0.153,0.094,-,CALM,No
2019/06/06,07:00,0.199,0.181,0.304,0.287,0.274,0.152,0.094,-,CALM,No
2019/06/06,07:10,0.201,0.181,0.306,0.290,0.276,0.153,0.094,south,1.0,No
2019/06/06,07:20,0.199,0.182,0.306,0.287,0.277,0.154,0.095,south-southeast,1.7,No
2019/06/06,07:30,0.199,0.182,0.304,0.286,0.275,0.152,0.093,south,2.0,No
2019/06/06,07:40,0.201,0.182,0.307,0.289,0.272,0.153,0.095,south-southwest,1.3,No
2019/06/06,07:50,0.198,0.183,0.304,0.287,0.276,0.152,0.093,east-southeast,0.7,No
2019/06/06,08:00,0.199,0.183,0.305,0.286,0.276,0.151,0.094,southeast,1.2,No
2019/06/06,08:10,0.200,0.182,0.308,0.290,0.273,0.152,0.094,southeast,2.0,No
2019/06/06,08:20,0.199,0.181,0.305,0.288,0.273,0.152,0.094,southeast,2.3,No
2019/06/06,08:30,0.198,0.181,0.305,0.285,0.271,0.152,0.094,east-southeast,1.4,No
2019/06/06,08:40,0.198,0.180,0.303,0.286,0.272,0.152,0.093,east-northeast,1.5,No
2019/06/06,08:50,0.200,0.182,0.303,0.286,0.272,0.152,0.093,east-northeast,1.4,No
2019/06/06,09:00,0.201,0.181,0.302,0.286,0.271,0.152,0.093,east-northeast,1.7,No
2019/06/06,09:10,0.199,0.182,0.308,0.286,0.275,0.153,0.094,east,3.0,No
2019/06/06,09:20,0.198,0.184,0.308,0.286,0.273,0.153,0.093,east,2.8,No
2019/06/06,09:30,0.201,0.183,0.307,0.286,0.274,0.153,0.093,east-northeast,3.1,No
2019/06/06,09:40,0.200,0.182,0.306,0.286,0.274,0.153,0.094,east,2.2,No
2019/06/06,09:50,0.199,0.182,0.306,0.286,0.272,0.152,0.094,east,1.4,No
2019/06/06,10:00,0.199,0.183,0.309,0.286,0.274,0.151,0.094,east,1.7,No
2019/06/06,10:10,0.201,0.183,0.308,0.286,0.273,0.152,0.094,east,2.2,No
2019/06/06,10:20,0.201,0.183,0.305,0.283,0.274,0.152,0.093,east-northeast,1.9,No
2019/06/06,10:30,0.199,0.182,0.305,0.283,0.275,0.152,0.094,east-northeast,3.3,No
2019/06/06,10:40,0.198,0.181,0.304,0.287,0.274,0.152,0.094,east-northeast,4.0,No
2019/06/06,10:50,0.198,0.181,0.303,0.288,0.273,0.153,0.093,northeast,4.3,No
2019/06/06,11:00,0.201,0.183,0.304,0.288,0.274,0.152,0.094,east-northeast,2.4,No
2019/06/06,11:10,0.200,0.183,0.303,0.287,0.273,0.153,0.093,northeast,1.7,No
2019/06/06,11:20,0.199,0.183,0.304,0.287,0.275,0.152,0.093,northeast,3.3,No
2019/06/06,11:30,0.198,0.182,0.304,0.288,0.275,0.153,0.093,northeast,2.5,No
2019/06/06,11:40,0.198,0.180,0.309,0.287,0.272,0.153,0.093,north-northeast,2.9,No
2019/06/06,11:50,0.197,0.181,0.309,0.287,0.274,0.152,0.093,northeast,2.9,No
2019/06/06,12:00,0.200,0.182,0.308,0.286,0.277,0.154,0.094,northeast,2.9,No
2019/06/06,12:10,0.201,0.183,0.305,0.286,0.279,0.153,0.094,northeast,2.6,No
2019/06/06,12:20,0.199,0.182,0.305,0.286,0.277,0.153,0.093,northeast,2.0,No
2019/06/06,12:30,0.199,0.182,0.306,0.286,0.275,0.152,0.093,northeast,1.0,No
2019/06/06,12:40,0.197,0.181,0.303,0.287,0.275,0.152,0.092,northeast,2.6,No
2019/06/06,12:50,0.199,0.181,0.304,0.288,0.274,0.153,0.093,east-northeast,1.5,No
2019/06/06,13:00,0.201,0.183,0.304,0.286,0.276,0.153,0.094,east-northeast,2.1,No
2019/06/06,13:10,0.202,0.183,0.304,0.288,0.276,0.153,0.094,east-northeast,3.1,No
2019/06/06,13:20,0.200,0.183,0.307,0.287,0.276,0.153,0.094,east,2.6,No
2019/06/06,13:30,0.199,0.182,0.304,0.289,0.274,0.153,0.093,east-northeast,3.3,No
2019/06/06,13:40,0.198,0.182,0.305,0.288,0.274,0.152,0.093,east-northeast,2.6,No
2019/06/06,13:50,0.197,0.181,0.300,0.288,0.274,0.153,0.093,east-northeast,2.3,No
2019/06/06,14:00,0.199,0.182,0.298,0.286,0.274,0.153,0.093,east-northeast,3.0,No
2019/06/06,14:10,0.201,0.183,0.305,0.287,0.274,0.152,0.093,east-northeast,3.1,No
2019/06/06,14:20,0.200,0.182,0.310,0.288,0.275,0.155,0.093,east-northeast,2.7,No
2019/06/06,14:30,0.199,0.182,0.308,0.288,0.273,0.153,0.093,east,3.0,No
2019/06/06,14:40,0.198,0.178,0.308,0.288,0.275,0.152,0.093,northeast,1.6,No
2019/06/06,14:50,0.199,0.181,0.305,0.292,0.273,0.152,0.094,northeast,2.3,No
2019/06/06,15:00,0.200,0.182,0.305,0.290,0.275,0.152,0.093,northeast,1.6,No
2019/06/06,15:10,0.200,0.182,0.304,0.287,0.274,0.152,0.093,northeast,2.1,No
2019/06/06,15:20,0.197,0.182,0.304,0.292,0.273,0.152,0.093,northeast,2.0,No
2019/06/06,15:30,0.200,0.184,0.309,0.290,0.273,0.152,0.093,northeast,2.0,No
2019/06/06,15:40,0.202,0.184,0.309,0.287,0.274,0.153,0.093,northeast,2.0,No
2019/06/06,15:50,0.199,0.182,0.306,0.291,0.272,0.153,0.094,northeast,2.0,No
2019/06/06,16:00,0.197,0.183,0.305,0.290,0.273,0.153,0.093,northeast,3.1,No
2019/06/06,16:10,0.201,0.182,0.308,0.288,0.272,0.153,0.093,east-northeast,2.8,No
2019/06/06,16:20,0.200,0.183,0.307,0.290,0.275,0.152,0.094,northeast,3.0,No
2019/06/06,16:30,0.199,0.183,0.307,0.288,0.277,0.153,0.092,north-northeast,3.4,No
2019/06/06,16:40,0.200,0.183,0.308,0.289,0.277,0.151,0.093,north-northeast,4.2,No
2019/06/06,16:50,0.199,0.183,0.306,0.289,0.273,0.152,0.093,north-northeast,2.9,No
2019/06/06,17:00,0.199,0.183,0.309,0.290,0.272,0.152,0.094,north-northeast,2.7,No
2019/06/06,17:10,0.199,0.184,0.305,0.290,0.277,0.151,0.093,north,2.4,No
2019/06/06,17:20,0.200,0.183,0.307,0.288,0.276,0.152,0.094,north-northeast,3.5,No
2019/06/06,17:30,0.202,0.184,0.306,0.291,0.274,0.152,0.093,north,2.4,No
2019/06/06,17:40,0.200,0.183,0.308,0.288,0.277,0.152,0.093,north,2.4,No
2019/06/06,17:50,0.200,0.183,0.306,0.292,0.276,0.152,0.093,north,2.5,No
2019/06/06,18:00,0.200,0.185,0.308,0.289,0.276,0.151,0.094,north,3.0,No
2019/06/06,18:10,0.201,0.182,0.306,0.290,0.277,0.153,0.093,north,3.1,No
2019/06/06,18:20,0.198,0.184,0.311,0.289,0.276,0.153,0.094,north-northwest,3.5,No
2019/06/06,18:30,0.200,0.183,0.306,0.291,0.276,0.152,0.093,north-northwest,3.4,No
2019/06/06,18:40,0.198,0.184,0.309,0.290,0.276,0.153,0.093,north-northwest,2.9,No
2019/06/06,18:50,0.201,0.184,0.308,0.289,0.278,0.151,0.093,north,2.5,No
2019/06/06,19:00,0.199,0.183,0.308,0.290,0.276,0.152,0.093,north,2.2,No
2019/06/06,19:10,0.200,0.184,0.308,0.290,0.277,0.152,0.093,north-northeast,2.9,No
2019/06/06,19:20,0.199,0.182,0.308,0.289,0.275,0.152,0.093,north-northeast,2.6,No
2019/06/06,19:30,0.200,0.183,0.308,0.289,0.277,0.153,0.093,north-northeast,3.2,No
2019/06/06,19:40,0.201,0.184,0.308,0.291,0.274,0.152,0.093,north,3.1,No
2019/06/06,19:50,0.200,0.184,0.306,0.289,0.276,0.152,0.093,north,2.9,No
2019/06/06,20:00,0.200,0.183,0.309,0.290,0.274,0.153,0.092,north,3.1,No
2019/06/06,20:10,0.199,0.183,0.307,0.290,0.277,0.152,0.093,north,2.1,No
2019/06/06,20:20,0.200,0.183,0.307,0.290,0.274,0.153,0.093,north,2.7,No
2019/06/06,20:30,0.199,0.183,0.307,0.289,0.277,0.151,0.094,north,1.7,No
2019/06/06,20:40,0.199,0.185,0.306,0.290,0.274,0.153,0.092,north,1.7,No
2019/06/06,20:50,0.200,0.182,0.307,0.289,0.279,0.153,0.093,north,2.7,No
2019/06/06,21:00,0.200,0.183,0.306,0.291,0.274,0.153,0.093,north-northwest,2.2,No
2019/06/06,21:10,0.200,0.183,0.308,0.289,0.277,0.152,0.094,north-northwest,1.7,No
2019/06/06,21:20,0.201,0.184,0.307,0.291,0.275,0.152,0.093,north-northwest,2.3,No
2019/06/06,21:30,0.199,0.184,0.309,0.289,0.277,0.151,0.094,north,2.0,No
2019/06/06,21:40,0.200,0.185,0.307,0.290,0.275,0.152,0.094,north,2.1,No
2019/06/06,21:50,0.199,0.183,0.307,0.288,0.276,0.152,0.093,north,1.9,No
2019/06/06,22:00,0.200,0.183,0.306,0.291,0.275,0.153,0.093,north,2.2,No
2019/06/06,22:10,0.198,0.183,0.308,0.289,0.276,0.153,0.093,north,2.2,No
2019/06/06,22:20,0.200,0.183,0.306,0.291,0.275,0.153,0.093,north,2.1,No
2019/06/06,22:30,0.201,0.183,0.308,0.290,0.277,0.152,0.093,north,2.3,No
2019/06/06,22:40,0.200,0.183,0.307,0.290,0.274,0.153,0.093,north-northwest,1.8,No
2019/06/06,22:50,0.200,0.182,0.309,0.289,0.277,0.153,0.093,north,2.1,No
2019/06/06,23:00,0.199,0.184,0.306,0.290,0.275,0.153,0.094,north,1.5,No
2019/06/06,23:10,0.199,0.183,0.308,0.291,0.277,0.152,0.094,north,2.1,No
2019/06/06,23:20,0.200,0.183,0.308,0.289,0.275,0.152,0.093,north-northeast,2.5,No
2019/06/06,23:30,0.200,0.185,0.307,0.290,0.276,0.152,0.094,north,2.2,No
2019/06/06,23:40,0.198,0.183,0.308,0.289,0.275,0.152,0.092,north,2.1,No
2019/06/06,23:50,0.200,0.183,0.306,0.291,0.276,0.153,0.093,north-northwest,1.7,No
